Location: Freemans Gardens
(41.6414°N, 83.6077°W)
Time: 21:21:31
(UTC+00:00)

H-2A R/B - Pass Details

Date: 29 October 2020
Orbit: 733 x 837 km, 98.2° (Epoch: 25 November)

Event Time Altitude Azimuth Distance (km) Brightness Sun altitude
Rises 22:59:27 0° 113° (ESE) 3,366 4.8 -5.7°
Reaches altitude 10° 23:02:55 10° 90° (E) 2,447 4.0 -6.4°
Maximum altitude 23:05:41 14° 59° (ENE) 2,157 3.7 -6.9°
Drops below altitude 10° 23:08:29 10° 28° (NNE) 2,459 4.2 -7.4°
Sets 23:11:57 0° 5° (N) 3,394 5.2 -8.0°
